Ludington, MI

12:44 PM EST on December 12, 2019 (GMT -0500)
Mason County

Weather History for KLDM - August, 2019

Change the Weather History Date:

Monday, August 19, 2019

  Actual Average Record
Temperature  
Mean Temperature 66 °F -  
Max Temperature 77 °F 76 °F 97 °F (1955)
Min Temperature 56 °F 55 °F 42 °F (1958)
Cooling Degree Days 2    
Growing Degree Days 16 (Base 50)    
Moisture  
Dew Point 60 °F    
Average Humidity 76    
Maximum Humidity 98    
Minimum Humidity 46    
Precipitation  
Precipitation 0.00 in - - ()
Sea Level Pressure  
Sea Level Pressure 29.99 in    
Wind  
Wind Speed 4 mph (WSW)    
Max Wind Speed 10 mph    
Max Gust Speed -    
Visibility 9 miles    
Events Fog    
Averages and records for this station are not official NWS values.
T = Trace of Precipitation, MM = Missing Value Source: NWS Daily Summary

Daily Weather History Graph

Daily Weather History Graph

Search for Another Location

Airport or City:

Astronomy

Aug. 19, 2019 Rise Set
Actual Time 6:53 AM EDT 8:43 PM EDT
Civil Twilight 6:23 AM EDT 9:14 PM EDT
Nautical Twilight 5:45 AM EDT 9:52 PM EDT
Astronomical Twilight 5:04 AM EDT 10:32 PM EDT
Moon 10:57 PM EDT (8/19) 10:41 AM EDT (8/19)
Length of Visible Light 14h 51m
Length of Day
13h 49m
Waning Gibbous, 85% of the Moon is Illuminated
Aug 19
Waning Gibbous
Aug 23
Last Quarter
Aug 30
New
Sep 5
First Quarter
Sep 14
Full

Hourly Weather History & Observations

Time (EDT) Temp. Dew Point Humidity Pressure Visibility Wind Dir Wind Speed Gust Speed Precip Events Conditions
12:16 AM 69.4 °F 66.2 °F 89% 29.88 in 10.0 mi WSW 6.9 mph - N/A   Clear
12:35 AM 69.4 °F 66.2 °F 89% 29.89 in 10.0 mi WSW 6.9 mph - N/A   Clear
12:55 AM 70.0 °F 66.6 °F 89% 29.89 in 10.0 mi WSW 6.9 mph - N/A   Mostly Cloudy
12:56 AM 70.0 °F 66.6 °F 89% 29.89 in 10.0 mi WSW 6.9 mph - N/A   Mostly Cloudy
1:19 AM 70.0 °F 66.7 °F 89% 29.89 in 10.0 mi WSW 5.8 mph - N/A   Overcast
1:37 AM 70.2 °F 66.6 °F 88% 29.89 in 10.0 mi WSW 5.8 mph - N/A   Mostly Cloudy
1:55 AM 70.3 °F 66.2 °F 87% 29.89 in 10.0 mi WSW 5.8 mph - N/A   Mostly Cloudy
1:56 AM 70.2 °F 66.2 °F 87% 29.89 in 10.0 mi West 5.8 mph - N/A   Mostly Cloudy
2:15 AM 70.2 °F 66.2 °F 87% 29.90 in 10.0 mi West 3.5 mph - N/A   Mostly Cloudy
2:16 AM 70.0 °F 66.2 °F 88% 29.90 in 10.0 mi WSW 4.6 mph - N/A   Mostly Cloudy
2:35 AM 70.0 °F 65.7 °F 86% 29.90 in 10.0 mi West 4.6 mph - N/A   Scattered Clouds
2:58 AM 69.8 °F 65.7 °F 87% 29.91 in 10.0 mi West 3.5 mph - N/A   Scattered Clouds
3:16 AM 70.2 °F 65.8 °F 86% 29.91 in 10.0 mi WNW 3.5 mph - N/A   Overcast
3:35 AM 69.8 °F 65.5 °F 86% 29.92 in 10.0 mi Calm Calm - N/A   Overcast
3:36 AM 69.8 °F 65.5 °F 86% 29.92 in 10.0 mi WNW 3.5 mph - N/A   Overcast
3:55 AM 69.1 °F 65.3 °F 88% 29.92 in 10.0 mi NNW 4.6 mph - N/A   Overcast
3:56 AM 69.1 °F 65.3 °F 88% 29.92 in 10.0 mi NNW 4.6 mph - N/A   Overcast
4:19 AM 68.0 °F 64.4 °F 88% 29.92 in 10.0 mi North 3.5 mph - N/A   Mostly Cloudy
4:37 AM 66.9 °F 62.4 °F 85% 29.93 in 10.0 mi NE 3.5 mph - N/A   Mostly Cloudy
4:55 AM 65.5 °F 61.2 °F 86% 29.94 in 10.0 mi Calm Calm - N/A   Mostly Cloudy
4:56 AM 65.5 °F 61.2 °F 86% 29.94 in 10.0 mi Calm Calm - N/A   Mostly Cloudy
5:15 AM 63.3 °F 61.0 °F 92% 29.95 in 10.0 mi Calm Calm - N/A   Scattered Clouds
5:16 AM 63.1 °F 61.0 °F 93% 29.95 in 10.0 mi Calm Calm - N/A   Scattered Clouds
5:35 AM 62.2 °F 60.8 °F 95% 29.95 in 10.0 mi Calm Calm - N/A   Scattered Clouds
5:40 AM 61.7 °F 60.8 °F 97% 29.95 in 10.0 mi Calm Calm - N/A   Scattered Clouds
5:58 AM 60.6 °F 59.9 °F 97% 29.95 in 10.0 mi Calm Calm - N/A   Scattered Clouds
6:16 AM 59.5 °F 59.0 °F 98% 29.95 in 10.0 mi Calm Calm - N/A   Scattered Clouds
6:35 AM 58.6 °F 57.9 °F 97% 29.96 in 10.0 mi Calm Calm - N/A   Clear
6:36 AM 58.8 °F 58.1 °F 97% 29.96 in 10.0 mi Calm Calm - N/A   Clear
6:55 AM 56.7 °F 55.9 °F 97% 29.97 in 3.0 mi Calm Calm - N/A   Clear
6:56 AM 56.8 °F 56.1 °F 97% 29.97 in 3.0 mi Calm Calm - N/A   Clear
7:19 AM 57.4 °F 56.7 °F 97% 29.98 in 4.0 mi Calm Calm - N/A   Clear
7:37 AM 58.1 °F 57.4 °F 97% 29.99 in 10.0 mi Calm Calm - N/A   Clear
7:55 AM 59.7 °F 59.0 °F 97% 30.00 in 10.0 mi Calm Calm - N/A   Clear
8:15 AM 62.4 °F 61.0 °F 95% 30.00 in 10.0 mi Calm Calm - N/A   Clear
8:35 AM 65.3 °F 60.6 °F 85% 30.00 in 10.0 mi Calm Calm - N/A   Clear
8:40 AM 66.0 °F 60.6 °F 83% 30.00 in 10.0 mi Calm Calm - N/A   Clear
8:58 AM 68.0 °F 58.5 °F 71% 30.01 in 10.0 mi Calm Calm - N/A   Clear
9:16 AM 69.6 °F 56.5 °F 63% 30.01 in 10.0 mi Calm Calm - N/A   Clear
9:35 AM 70.7 °F 55.9 °F 59% 30.01 in 10.0 mi East 3.5 mph - N/A   Clear
9:55 AM 71.8 °F 53.8 °F 53% 30.02 in 10.0 mi East 5.8 mph - N/A   Clear
10:19 AM 72.5 °F 53.4 °F 51% 30.02 in 10.0 mi ENE 3.5 mph - N/A   Clear
10:37 AM 73.0 °F 53.2 °F 50% 30.03 in 10.0 mi ENE 4.6 mph - N/A   Clear
10:55 AM 73.2 °F 52.0 °F 47% 30.03 in 10.0 mi East 5.8 mph - N/A   Clear
10:56 AM 73.4 °F 52.2 °F 47% 30.03 in 10.0 mi East 4.6 mph - N/A   Clear
11:15 AM 73.8 °F 53.1 °F 48% 30.04 in 10.0 mi Calm Calm - N/A   Clear
11:35 AM 73.6 °F 52.5 °F 48% 30.04 in 10.0 mi Calm Calm - N/A   Clear
11:58 AM 74.5 °F 53.2 °F 47% 30.04 in 10.0 mi Calm Calm - N/A   Clear
12:16 PM 75.7 °F 54.9 °F 48% 30.04 in 10.0 mi ESE 5.8 mph - N/A   Clear
12:35 PM 75.0 °F 54.0 °F 48% 30.04 in 10.0 mi Calm Calm - N/A   Scattered Clouds
12:36 PM 75.2 °F 54.3 °F 48% 30.04 in 10.0 mi Calm Calm - N/A   Scattered Clouds
12:55 PM 75.9 °F 53.8 °F 46% 30.03 in 10.0 mi Calm Calm - N/A   Scattered Clouds
12:56 PM 75.9 °F 54.5 °F 47% 30.03 in 10.0 mi SW 5.8 mph - N/A   Scattered Clouds
1:19 PM 77.0 °F 55.6 °F 47% 30.03 in 10.0 mi Calm Calm - N/A   Clear
1:37 PM 77.0 °F 57.4 °F 51% 30.03 in 10.0 mi SW 6.9 mph - N/A   Clear
1:55 PM 77.2 °F 56.5 °F 49% 30.03 in 10.0 mi SW 8.1 mph - N/A   Clear
1:56 PM 77.2 °F 56.1 °F 48% 30.03 in 10.0 mi SW 9.2 mph - N/A   Clear
2:15 PM 76.8 °F 57.0 °F 50% 30.03 in 10.0 mi WSW 8.1 mph - N/A   Clear
2:16 PM 76.8 °F 57.2 °F 51% 30.03 in 10.0 mi SW 8.1 mph - N/A   Clear
2:35 PM 77.4 °F 57.2 °F 50% 30.03 in 10.0 mi WSW 5.8 mph - N/A   Clear
2:40 PM 77.0 °F 56.5 °F 49% 30.03 in 10.0 mi WSW 9.2 mph - N/A   Clear
2:58 PM 76.8 °F 57.2 °F 51% 30.03 in 10.0 mi SW 6.9 mph - N/A   Clear
3:16 PM 77.0 °F 57.9 °F 52% 30.03 in 10.0 mi West 5.8 mph - N/A   Clear
3:35 PM 75.9 °F 57.2 °F 52% 30.03 in 10.0 mi WSW 10.4 mph - N/A   Clear
3:36 PM 75.9 °F 57.2 °F 52% 30.03 in 10.0 mi WSW 9.2 mph - N/A   Clear
3:55 PM 75.9 °F 58.1 °F 54% 30.03 in 10.0 mi WSW 8.1 mph - N/A   Clear
3:56 PM 75.7 °F 58.3 °F 55% 30.02 in 10.0 mi WSW 8.1 mph - N/A   Clear
4:19 PM 75.6 °F 59.9 °F 58% 30.02 in 10.0 mi SW 8.1 mph - N/A   Clear
4:37 PM 74.7 °F 59.4 °F 59% 30.02 in 10.0 mi SW 6.9 mph - N/A   Clear
4:56 PM 74.8 °F 60.4 °F 61% 30.02 in 10.0 mi WSW 8.1 mph - N/A   Clear
5:15 PM 74.3 °F 61.3 °F 64% 30.02 in 10.0 mi WSW 8.1 mph - N/A   Clear
5:35 PM 74.3 °F 63.5 °F 69% 30.03 in 10.0 mi WSW 4.6 mph - N/A   Clear
5:58 PM 73.6 °F 66.4 °F 78% 30.03 in 10.0 mi WSW 6.9 mph - N/A   Scattered Clouds
6:16 PM 74.3 °F 60.6 °F 62% 30.03 in 10.0 mi WSW 5.8 mph - N/A   Scattered Clouds
6:35 PM 74.3 °F 62.1 °F 65% 30.02 in 10.0 mi SW 6.9 mph - N/A   Clear
7:19 PM 72.5 °F 61.9 °F 69% 30.02 in 10.0 mi Calm Calm - N/A   Clear
7:37 PM 72.5 °F 61.0 °F 67% 30.02 in 10.0 mi Calm Calm - N/A   Clear
7:55 PM 70.5 °F 61.7 °F 74% 30.02 in 10.0 mi NNW 4.6 mph - N/A   Clear
7:56 PM 70.5 °F 61.7 °F 74% 30.02 in 10.0 mi NNW 4.6 mph - N/A   Clear
8:15 PM 69.8 °F 61.9 °F 76% 30.01 in 10.0 mi Calm Calm - N/A   Clear
8:35 PM 66.2 °F 62.1 °F 86% 30.01 in 10.0 mi Calm Calm - N/A   Clear
8:58 PM 64.0 °F 62.4 °F 94% 30.01 in 10.0 mi Calm Calm - N/A   Clear
9:16 PM 63.0 °F 62.2 °F 97% 30.02 in 10.0 mi Calm Calm - N/A   Clear
9:35 PM 61.9 °F 61.2 °F 97% 30.02 in 10.0 mi Calm Calm - N/A   Clear
9:36 PM 62.1 °F 61.2 °F 97% 30.02 in 10.0 mi Calm Calm - N/A   Clear
9:55 PM 61.7 °F 60.8 °F 97% 30.02 in 10.0 mi Calm Calm - N/A   Clear
9:56 PM 61.5 °F 60.8 °F 97% 30.02 in 10.0 mi Calm Calm - N/A   Clear
10:19 PM 59.5 °F 58.8 °F 97% 30.03 in 3.0 mi Calm Calm - N/A   Clear
10:37 PM 60.1 °F 59.4 °F 97% 30.03 in 2.5 mi Calm Calm - N/A   Clear
10:55 PM 59.9 °F 59.2 °F 97% 30.03 in 0.5 mi Calm Calm - N/A Fog Fog
11:15 PM 59.2 °F 58.5 °F 97% 30.03 in 0.8 mi Calm Calm - N/A   Mist
11:16 PM 59.2 °F 58.3 °F 97% 30.03 in 0.5 mi Calm Calm - N/A Fog Fog
11:35 PM 57.0 °F 56.3 °F 97% 30.04 in 7.0 mi Calm Calm - N/A   Scattered Clouds
11:40 PM 57.7 °F 57.0 °F 97% 30.04 in 7.0 mi Calm Calm - N/A   Scattered Clouds